{"data":{"norad_id":65246,"epoch":"2026-09-20T08:37:20.715456Z","epoch_age_seconds":129659,"freshness":"FRESH","line1":"1 65246U 25179M   26263.35926754  .00009915  00000+0  30907-3 0  9992","line2":"2 65246  97.2844 302.7441 0001576 107.4864 252.6551 15.33442479 61307","mean_motion":15.33442479,"eccentricity":0.0001576,"inclination_deg":97.2844,"raan_deg":302.7441,"arg_perigee_deg":107.4864,"mean_anomaly_deg":252.6551,"bstar":0.00030907,"rev_number":6130,"period_min":93.906359039895,"perigee_km":464.47211003312,"apogee_km":466.62924038835,"semimajor_km":6843.6876752107,"source":"CELESTRAK","updated_at":"2026-09-21T09:00:35.560023Z"}}